Hourly Data Report for September 30, 2018

TORONTO CITY
ONTARIO
Current Station Operator: ECCC - MSC

43°40'00.000" N
79°24'00.000" W
112.50 m
6158355
71508
XTO

Download Data

Hourly Data (September 2018)
Hourly Data Report for September 30, 2018
TIME
LST
Temp Definition
°C
Dew Point Definition
°C
Rel Hum Definition
%
Precip. Amount Definition
mm

Wind Dir Definition
10's deg

Wind Spd Definition
km/h
Visibility Definition
km
Stn Press Definition
kPa
Hmdx Definition


Wind Chill Definition


Weather Definition


00:00 10.7 3.5 61 0.0 LegendMM LegendMM   101.25     LegendNANA
01:00 10.7 2.9 59 0.0 LegendMM LegendMM   101.28     LegendNANA
02:00 10.8 2.9 58 0.0 LegendMM LegendMM   101.27     LegendNANA
03:00 10.6 4.1 64 0.0 LegendMM LegendMM   101.29     LegendNANA
04:00 10.1 3.9 65 0.0 LegendMM LegendMM   101.32     LegendNANA
05:00 10.0 5.2 72 0.0 LegendMM LegendMM   101.32     LegendNANA
06:00 10.6 6.2 74 0.0 LegendMM LegendMM   101.32     LegendNANA
07:00 11.0 6.0 71 0.0 LegendMM LegendMM   101.29     LegendNANA
08:00 11.5 6.1 70 0.0 LegendMM LegendMM   101.33     LegendNANA
09:00 12.1 5.7 65 0.0 LegendMM LegendMM   101.31     LegendNANA
10:00 12.6 5.1 60 0.0 LegendMM LegendMM   101.30     LegendNANA
11:00 12.8 5.4 61 0.0 LegendMM LegendMM   101.27     LegendNANA
12:00 13.0 5.0 58 0.0 LegendMM LegendMM   101.24     LegendNANA
13:00 13.2 5.0 58 0.0 LegendMM LegendMM   101.17     LegendNANA
14:00 13.4 5.5 59 0.0 LegendMM LegendMM   101.13     LegendNANA
15:00 13.5 5.7 59 0.0 LegendMM LegendMM   101.07     LegendNANA
16:00 13.4 5.3 58 0.0 LegendMM LegendMM   101.04     LegendNANA
17:00 13.2 5.7 61 0.0 LegendMM LegendMM   101.00     LegendNANA
18:00 13.0 6.3 64 0.0 LegendMM LegendMM   101.00     LegendNANA
19:00 12.5 6.9 69 0.0 LegendMM LegendMM   101.04     LegendNANA
20:00 12.1 7.2 72 0.0 LegendMM LegendMM   101.03     LegendNANA
21:00 11.4 7.9 79 0.5 LegendMM LegendMM   101.10     LegendNANA
22:00 10.6 8.4 86 1.5 LegendMM LegendMM   101.12     LegendNANA
23:00 10.6 8.8 89 2.5 LegendMM LegendMM   101.11     LegendNANA

Notes on Data Quality.

Legend

  • E = Estimated
  • M = Missing
  • NA = Not Available*
  • [empty] = Indicates an unobserved value
Date modified: